Location: Ertinghausen
(51.6624°N, 9.7874°E)
Time: 15:43:06
(UTC+00:00)

Cosmos 1733 Rocket - Pass Details

Date: 23 May 2024
Orbit: 600 x 623 km, 82.5° (Epoch: 23 June)

Event Time Altitude Azimuth Distance (km) Brightness Sun altitude
Rises 00:23:54 0° 344° (NNW) 2,868 7.5 -16.3°
Reaches altitude 10° 00:26:11 10° 338° (NNW) 1,961 6.4 -16.2°
Maximum altitude 00:30:18 45° 266° (W) 835 3.5 -16.0°
Enters shadow 00:32:05 28° 213° (SSW) 1,135 3.8 -15.9°
